Flag for U.S.A. Weather past 2 weeks in Monticello, Kentucky, U.S.A.

Now
72 °F

Sunny.


Feels Like: 76 °F
Forecast: 52 / 79 °F
Wind: No wind

Location: London-Corbin Airport-Magee Field

Current Time: Sep 19, 2014 at 12:51:27 PM

Latest Report: Sep 19, 2014 at 11:53 AM


Visibility: 10 mi

Pressure: 30.12 "Hg

Humidity: 59%

Dew point: 57 °F

Location of MonticelloLocation

Historic Weather in Monticello — Graph

°F

Monticello temperature yesterday

Maximum temperature yesterday: 75 °F (at 1:53 PM)
Minimum temperature yesterday: 56 °F (at 7:53 AM)
Average temperature yesterday: 65 °F

Past Weeks' High & Low Weather Summary

 TemperatureHumidityPressure
High85 °F (Sep 6, 12:53 PM)94% (Sep 8, 5:53 AM)30.27 "Hg (Sep 8, 5:53 AM)
Low52 °F (Sep 14, 6:53 AM)45% (Sep 9, 3:53 PM)29.89 "Hg (Sep 10, 8:53 PM)
Average69 °F79%30.08 "Hg
* Reported Sep 4 10:53 AM — Sep 19 10:53 AM, Monticello, Weather by CustomWeather, © 2014

Note: Actual official high and low records may vary slightly from our data, if they occured in-between our weather recording intervals... More about our weather records

Advertising

Monticello weather history for previous 24 hours

 ConditionsComfort  
Time TempWeatherWind HumidityBarometerVisibility
10:53 AM
Sep 19
69 °FSunny.5 mph63%30.12 "Hg10 mi
9:53 AM64 °FSunny.5 mph73%30.11 "Hg10 mi
8:53 AM59 °FSunny.No wind81%30.11 "Hg10 mi
7:53 AM55 °FFog.5 mph87%30.11 "Hg6 mi
6:53 AM55 °FClear.5 mph87%30.10 "Hg8 mi
5:53 AM56 °FClear.3 mph84%30.09 "Hg10 mi
4:53 AM57 °FClear.5 mph83%30.07 "Hg10 mi
3:53 AM57 °FClear.5 mph83%30.07 "Hg10 mi
2:53 AM58 °FClear.5 mph84%30.07 "Hg10 mi
1:53 AM59 °FClear.No wind81%30.07 "Hg10 mi
12:53 AM62 °FClear.5 mph70%30.08 "Hg10 mi
11:53 PM
Sep 18
62 °FClear.No wind73%30.07 "Hg10 mi
10:53 PM62 °FClear.3 mph73%30.07 "Hg10 mi
9:53 PM62 °FClear.5 mph75%30.06 "Hg10 mi
8:53 PM64 °FClear.5 mph73%30.04 "Hg10 mi
7:53 PM66 °FSunny.5 mph68%30.02 "Hg10 mi
6:53 PM71 °FSunny.9 mph55%30.01 "Hg10 mi
5:53 PM74 °FPassing clouds.7 mph48%30.00 "Hg10 mi
4:53 PM74 °FPassing clouds.3 mph46%30.00 "Hg10 mi
3:53 PM75 °FScattered clouds.5 mph47%30.01 "Hg10 mi
2:53 PM75 °FPassing clouds.5 mph47%30.01 "Hg10 mi
1:53 PM75 °FScattered clouds.5 mph48%30.03 "Hg10 mi
12:53 PM71 °FPartly sunny.6 mph55%30.04 "Hg10 mi
Weather by CustomWeather, © 2014

See weather overviewHow to use our weather pages